INNOSAT 3 (RS92S0)

Last updated on Sun Aug 09 2026 00:03:16 GMT+0000 (Coordinated Universal Time)

1 64894U 25155U 26220.62014268 .00027952 00000+0 54184-3 0 9999 2 64894 97.4510 193.5297 0004799 40.4955 319.6651 15.47648929 89060
UTC large
Height (km)
Speed (km/s)
/
Latitude / Longitude
Inclination (degrees)
Orbital Period (minutes)
Azimuth
Elevation
Range (km)
Doppler Factor

Next 0 passes for location: London (51.5072 / 0.1276)

No passes found over London.
INNOSAT 3 (RS92S0)